Regional Weather Roundup
Issued by NWS

Home | Current Version | Previous Version | Graphics & Text | Print | Product List | Glossary On
Versions: 1 2 3 4 5 6 7 8 9 10 11 12 13 14 15 16 17 18 19 20 21 22 23 24 25 26 27 28 29 30 31 32 33 34 35 36 37 38 39 40 41 42 43 44 45 46 47 48 49 50
000
ASUS43 KLOT 271810
RWRIL

ILLINOIS REGIONAL WEATHER ROUNDUP
NATIONAL WEATHER SERVICE CHICAGO/ROMEOVILLE IL
1200 PM CST TUE JAN 27 2015

NOTE: "FAIR" INDICATES FEW OR NO CLOUDS BELOW 12,000 FEET WITH NO
SIGNIFICANT WEATHER AND/OR OBSTRUCTIONS TO VISIBILITY.

* THESE STATIONS ARE NOT UNDER NWS QUALITY CONTROL. THEY ALSO MAY NOT
  REPORT WEATHER SUCH AS PRECIPITATION OR FOG.

ILZ001-002-007-009-015-016-024-271900-
NORTHWEST ILLINOIS

CITY           SKY/WX    TMP DP  RH WIND       PRES   REMARKS
MOLINE         CLOUDY    30  22  72 N6        30.20R WCI  24
6HR MIN TEMP:  29; 6HR MAX TEMP:  34;

STERLING*      CLOUDY    30  25  80 N5        30.19S WCI  25
SAVANNA*       CLOUDY    28  23  79 N3        30.21S
$$

ILZ003-004-008-010-011-017-018-271900-
NORTH CENTRAL ILLINOIS

CITY           SKY/WX    TMP DP  RH WIND       PRES   REMARKS
ROCKFORD       CLOUDY    30  24  78 E5        30.19S WCI  25
6HR MIN TEMP:  26; 6HR MAX TEMP:  30;

FREEPORT*      CLOUDY    28  25  90 NE3       30.20R FOG
ROCHELLE*      CLOUDY    28  26  89 NE3       30.18S FOG
DE KALB*       CLOUDY    28  23  82 NE7       30.17S WCI  21
PERU*          CLOUDY    31  27  86 NE5       30.18S WCI  26
$$

ILZ005-006-012>014-019>023-271900-
NORTHEAST ILLINOIS

CITY           SKY/WX    TMP DP  RH WIND       PRES   REMARKS
CHICAGO-OHARE  PTSUNNY   30  19  63 NE8       30.16S WCI  22
6HR MIN TEMP:  27; 6HR MAX TEMP:  30; 6HR PCP: TRACE;

CHICAGO-MIDWAY PTSUNNY   31  19  61 NE9       30.17R WCI  23
6HR MIN TEMP:  29; 6HR MAX TEMP:  32;

AURORA         CLOUDY    31  23  72 NE8       30.17R WCI  23
6HR MIN TEMP:  27; 6HR MAX TEMP:  31; 6HR PCP: TRACE;

LANSING*       PTSUNNY   29  17  60 NE7       30.17S WCI  22
JOLIET*        CLOUDY    30  23  76 NE5       30.18R WCI  25
WAUKEGAN       MOSUNNY   28  17  63 NE8       30.17S WCI  20
6HR MIN TEMP:  27; 6HR MAX TEMP:  29;

DUPAGE AIRPORT CLOUDY    29  21  72 NE9       30.16R WCI  20
6HR MIN TEMP:  26; 6HR MAX TEMP:  30; 6HR PCP: TRACE;

KANKAKEE*      CLOUDY    29  21  72 NE8       30.17S WCI  21
WHEELING       PTSUNNY   29  18  63 N8        30.19R WCI  21
6HR MIN TEMP:  27; 6HR MAX TEMP:  30;

MORRIS*        CLOUDY    30  28  93 NE3       30.17S FOG
ROMEOVILLE*    CLOUDY    31  22  71 NE5       30.17R WCI  26
NORTHERLY ISL    N/A     30  17  58 NE6         N/A  WCI  24
$$

LMZ740>746-271900-
SOUTHERN LAKE MICHIGAN

STATION/POSITION SKY/WX   TEMP    WIND        PRES    VSBY  WAVE
                          AIR SEA DIR/SP/G                  HT/PER
                          (F)     (DEG/KT/KT) (MB)    (MI)  (FT/S)
WAUKEGAN HARBOR            28      50/  8/ 12   N/A
HARRISON CRIB              27      40/  8/ 10   N/A
BURNHAM HARBOR             29      50/  6/ 10   N/A
CALUMET HARBOR             29      30/  7/  9   N/A
MICHIGAN CITY              26     350/ 11/ 11   N/A
$$

ILZ025>027-034>036-040-047-049-050-058-095>099-271900-
WEST-CENTRAL ILLINOIS

CITY           SKY/WX    TMP DP  RH WIND       PRES   REMARKS
QUINCY         PTSUNNY   40  31  70 NE12      30.17S
GALESBURG*     CLOUDY    29  26  88 N3        30.19S
MACOMB*        CLOUDY    31  28  88 N8        30.21F WCI  24
JACKSONVILLE*  CLOUDY    37  31  80 N10       30.18R HAZE    WCI  30
PITTSFIELD*    PTSUNNY   42  31  67 N5        30.16F
$$

ILZ028>032-037-038-041>044-048-051>054-059>061-271900-
CENTRAL ILLINOIS

CITY           SKY/WX    TMP DP  RH WIND       PRES   REMARKS
PONTIAC        CLOUDY    31  28  90 NE5       30.18R WCI  26
BLOOMINGTON    PTSUNNY   32  29  89 NE8       30.16S WCI  25
DECATUR        CLOUDY    32  29  88 NE9       30.15S WCI  24
PEORIA         CLOUDY    32  24  72 VRB5      30.18S WCI  27
6HR MIN TEMP:  31; 6HR MAX TEMP:  32;

LACON*         CLOUDY    30  24  81 N6        30.18R WCI  24
LINCOLN*       CLOUDY    33  29  85 N6        30.18S WCI  28
SPRINGFIELD    CLOUDY    34  28  79 NE10      30.17S WCI  26
6HR MIN TEMP:  31; 6HR MAX TEMP:  34;

TAYLORVILLE    CLOUDY    32  28  86 N10       30.16F WCI  24
$$

ILZ033-039-045-046-055>057-062-063-271900-
EAST-CENTRAL ILLINOIS

CITY           SKY/WX    TMP DP  RH WIND       PRES   REMARKS
CHAMPAIGN      CLOUDY    31  26  82 N8        30.14S WCI  23
DANVILLE*      CLOUDY    28  25  87 NE6       30.11S FOG     WCI  22
RANTOUL*       CLOUDY    31  28  88 NE7       30.14S FOG     WCI  24
MATTOON        CLOUDY    31  27  85 N10       30.13R WCI  22
PARIS*         CLOUDY    31  29  93 NE3       30.14S
$$

ILZ079-100>102-271900-
SOUTHWEST ILLINOIS

CITY           SKY/WX    TMP DP  RH WIND       PRES   REMARKS
ALTON          CLOUDY    39  32  75 N10       30.16S WCI  32
BELLEVILLE     CLOUDY    42  32  67 N10       30.15F
CAHOKIA*       CLOUDY    43  33  68 N8        30.16F
SPARTA*        CLOUDY    40  32  71 N12       30.16F
$$

ILZ064>066-069>071-074>076-080>082-084>086-088>090-092>094-271900-
SOUTH-CENTRAL ILLINOIS

CITY           SKY/WX    TMP DP  RH WIND       PRES   REMARKS
CARBONDALE     CLOUDY    42  29  59 N14       30.15S
6HR MIN TEMP:  31; 6HR MAX TEMP:  43;

CAIRO*         CLOUDY    45  34  65 N7        30.15F
EFFINGHAM*     CLOUDY    34  29  80 N6        30.16S WCI  29
MARION         CLOUDY    41  30  65 N12       30.15S
MT. VERNON     CLOUDY    39  28  65 N5        30.14S
CENTRALIA*     PTSUNNY   39  29  69 NW8       30.14F WCI  33
SALEM*         CLOUDY    40  32  71 N8        30.15R
METROPOLIS*    CLOUDY    42  32  65 N9        30.13S
$$

ILZ067-068-072-073-078-083-087-091-271900-
SOUTHEAST ILLINOIS

CITY           SKY/WX    TMP DP  RH WIND       PRES   REMARKS
LAWRENCEVILLE  CLOUDY    33  30  88 N8        30.14S WCI  26
FLORA*         CLOUDY    36  31  83 N9        30.15R WCI  29
FAIRFIELD*     CLOUDY    37  32  80 N7        30.13S WCI  32
HARRISBURG*    CLOUDY    40  31  71 NE8       30.15S
ROBINSON*      CLOUDY    32  31  96 N6        30.15R FOG     WCI  26
$$

ABBREVIATIONS USED IN REMARKS
   TC - TEMPERATURE IN CELSIUS
  WCI - WIND CHILL INDEX
   HX - HEAT INDEX
  VSB - VISIBILITY
$$



USA.gov is the U.S. government's official web portal to all federal, state and local government web resources and services.